Sexton Summit, OR

10:06 AM PDT on March 23, 2017 (GMT -0700)
Sexton Summit

Weather History for KSXT - February, 2013

Change the Weather History Date:

Wednesday, February 6, 2013

  Actual Average Record
Temperature  
Mean Temperature 34 °F -  
Max Temperature 39 °F 39 °F 46 °F (2016)
Min Temperature 30 °F 30 °F 28 °F (2014)
Degree Days  
Heating Degree Days 30    
Moisture  
Dew Point 30 °F    
Average Humidity 89    
Maximum Humidity 100    
Minimum Humidity 65    
Precipitation  
Precipitation 0.06 in - - ()
Sea Level Pressure  
Sea Level Pressure 30.04 in    
Wind  
Wind Speed 11 mph (South)    
Max Wind Speed 17 mph    
Max Gust Speed 32 mph    
Visibility 5 miles    
Events Fog , Snow    
Averages and records for this station are not official NWS values.
T = Trace of Precipitation, MM = Missing Value Source: NWS Daily Summary

Daily Weather History Graph

Daily Weather History Graph

Search for Another Location

Airport or City:

Trip Planner

Search our weather history database for the weather conditions in past years. The results will help you decide how hot, cold, wet, or windy it might be!

Date:

Astronomy

Feb. 06, 2013 Rise Set
Actual Time 7:21 AM PST 5:34 PM PST
Civil Twilight 6:52 AM PST 6:03 PM PST
Nautical Twilight 6:18 AM PST 6:37 PM PST
Astronomical Twilight 5:45 AM PST 7:10 PM PST
Moon 4:13 AM PST (2/6) 1:56 PM PST (2/6)
Length of Visible Light 11h 11m
Length of Day
10h 12m
Waning Crescent, 16% of the Moon is Illuminated
Feb 6
Waning Crescent
Feb 9
New
Feb 17
First Quarter
Feb 25
Full
Mar 4
Last Quarter

Hourly Weather History & Observations

Time (PST) Temp. Windchill Dew Point Humidity Pressure Visibility Wind Dir Wind Speed Gust Speed Precip Events Conditions
12:28 AM 32.0 °F 23.6 °F 30.2 °F 93% 30.07 in 0.2 mi South 10.4 mph - 0.00 in Fog Fog
12:56 AM 32.0 °F 23.6 °F 30.9 °F 96% 30.14 in 0.2 mi South 10.4 mph - 0.00 in Fog Fog
1:56 AM 32.0 °F 23.0 °F 30.9 °F 96% 30.14 in 0.2 mi South 11.5 mph - N/A Fog Fog
2:56 AM 32.0 °F 24.8 °F 30.9 °F 96% 30.14 in 0.2 mi South 8.1 mph - 0.00 in Fog Fog
3:56 AM 32.0 °F 25.6 °F 30.9 °F 96% 30.14 in 0.2 mi South 6.9 mph - N/A Fog Fog
4:56 AM 32.0 °F 24.2 °F 30.9 °F 96% 30.14 in 0.2 mi South 9.2 mph - N/A Fog Fog
5:56 AM 32.0 °F 24.2 °F 30.9 °F 96% 30.13 in 0.2 mi South 9.2 mph - N/A Fog Fog
6:43 AM 30.2 °F 20.8 °F 30.2 °F 100% 30.06 in 0.2 mi South 11.5 mph - 0.00 in Fog Light Freezing Fog
6:56 AM 30.9 °F 22.2 °F 30.9 °F 100% 30.14 in 0.2 mi South 10.4 mph 17.3 mph 0.00 in Fog Light Freezing Fog
7:10 AM 30.2 °F 21.3 °F 30.2 °F 100% 30.07 in 0.5 mi South 10.4 mph - N/A Fog Light Freezing Fog
7:48 AM 30.2 °F 22.6 °F 30.2 °F 100% 30.07 in 0.2 mi South 8.1 mph - 0.00 in Fog Light Freezing Fog
7:56 AM 30.9 °F 22.2 °F 30.9 °F 100% 30.15 in 0.2 mi SSE 10.4 mph - 0.00 in Fog Light Freezing Fog
8:37 AM 30.2 °F 21.3 °F 30.2 °F 100% 30.08 in 0.8 mi South 10.4 mph - N/A   Overcast
8:43 AM 30.2 °F 21.3 °F 30.2 °F 100% 30.08 in 1.8 mi South 10.4 mph - N/A   Overcast
8:46 AM 30.2 °F 21.9 °F 30.2 °F 100% 30.08 in 5.0 mi South 9.2 mph - N/A   Overcast
8:56 AM 30.9 °F 22.2 °F 30.9 °F 100% 30.16 in 4.0 mi South 10.4 mph 16.1 mph N/A   Overcast
9:04 AM 30.2 °F 22.6 °F 30.2 °F 100% 30.08 in 1.8 mi South 8.1 mph 16.1 mph N/A   Overcast
9:11 AM 32.0 °F 23.6 °F 30.2 °F 93% 30.08 in 1.0 mi South 10.4 mph 18.4 mph N/A   Overcast
9:15 AM 32.0 °F 23.0 °F 30.2 °F 93% 30.08 in 2.5 mi South 11.5 mph 19.6 mph N/A   Overcast
9:20 AM 32.0 °F 23.6 °F 30.2 °F 93% 30.07 in 4.0 mi South 10.4 mph 19.6 mph N/A   Overcast
9:30 AM 32.0 °F 23.6 °F 32.0 °F 100% 30.07 in 1.8 mi SSE 10.4 mph - N/A   Overcast
9:41 AM 32.0 °F 24.2 °F 32.0 °F 100% 30.07 in 4.0 mi South 9.2 mph 21.9 mph N/A   Mostly Cloudy
9:53 AM 35.6 °F 27.1 °F 33.8 °F 93% 30.07 in 5.0 mi South 12.7 mph 19.6 mph N/A   Mostly Cloudy
9:56 AM 34.0 °F 25.0 °F 33.1 °F 96% 30.14 in 6.0 mi South 12.7 mph 19.6 mph N/A   Mostly Cloudy
10:42 AM 37.4 °F 30.8 °F 35.6 °F 93% 30.07 in 10.0 mi SSE 9.2 mph - N/A   Scattered Clouds
10:56 AM 34.0 °F 25.5 °F 32.0 °F 92% 30.13 in 10.0 mi South 11.5 mph 20.7 mph N/A   Partly Cloudy
11:56 AM 37.0 °F 31.0 °F 32.0 °F 82% 30.10 in 10.0 mi South 8.1 mph 20.7 mph N/A   Partly Cloudy
12:56 PM 39.0 °F 31.4 °F 32.0 °F 76% 30.06 in 10.0 mi South 12.7 mph 23.0 mph N/A   Scattered Clouds
1:14 PM 37.4 °F 29.8 °F 30.2 °F 75% 30.00 in 10.0 mi South 11.5 mph 20.7 mph N/A   Mostly Cloudy
1:26 PM 35.6 °F 28.0 °F 30.2 °F 81% 30.00 in 10.0 mi South 10.4 mph 18.4 mph N/A   Mostly Cloudy
1:56 PM 37.0 °F 30.4 °F 30.9 °F 79% 30.04 in 10.0 mi South 9.2 mph - N/A   Overcast
2:03 PM 37.4 °F 30.3 °F 30.2 °F 75% 29.98 in 10.0 mi SSW 10.4 mph 18.4 mph N/A   Overcast
2:36 PM 37.4 °F 29.3 °F 30.2 °F 75% 29.96 in 10.0 mi South 12.7 mph - N/A   Scattered Clouds
2:49 PM 37.4 °F 31.4 °F 30.2 °F 75% 29.96 in 10.0 mi South 8.1 mph - N/A   Mostly Cloudy
2:56 PM 37.0 °F 30.4 °F 30.0 °F 76% 30.01 in 10.0 mi SSW 9.2 mph 19.6 mph N/A   Mostly Cloudy
3:17 PM 37.4 °F 29.8 °F 30.2 °F 75% 29.95 in 10.0 mi SSW 11.5 mph 20.7 mph N/A   Scattered Clouds
3:56 PM 37.9 °F 28.5 °F 30.0 °F 73% 30.00 in 10.0 mi SW 17.3 mph 25.3 mph N/A   Clear
4:43 PM 37.4 °F 28.5 °F 26.6 °F 65% 29.95 in 10.0 mi SSW 15.0 mph 27.6 mph 0.01 in   Mostly Cloudy
4:56 PM 37.0 °F 29.3 °F 27.0 °F 67% 30.01 in 10.0 mi SSW 11.5 mph 25.3 mph 0.01 in   Overcast
5:16 PM 35.6 °F 25.9 °F 26.6 °F 70% 29.95 in 10.0 mi SW 16.1 mph 32.2 mph N/A   Overcast
5:56 PM 34.0 °F 24.6 °F 27.0 °F 75% 30.01 in 10.0 mi South 13.8 mph 28.8 mph N/A   Overcast
6:56 PM 33.1 °F 22.2 °F 28.0 °F 82% 30.00 in 10.0 mi SSW 17.3 mph 28.8 mph N/A   Overcast
7:56 PM 32.0 °F 23.0 °F 28.9 °F 88% 29.97 in 10.0 mi South 11.5 mph 18.4 mph N/A   Overcast
8:56 PM 32.0 °F 21.6 °F 28.0 °F 85% 29.96 in 10.0 mi South 15.0 mph - N/A   Overcast
9:56 PM 32.0 °F 22.5 °F 28.9 °F 88% 29.94 in 10.0 mi South 12.7 mph 19.6 mph N/A   Overcast
10:56 PM 32.0 °F 21.2 °F 30.0 °F 92% 29.95 in 3.0 mi SW 16.1 mph 23.0 mph 0.00 in Snow Light Snow
10:59 PM 32.0 °F 22.5 °F 30.2 °F 93% 29.89 in 1.8 mi SW 12.7 mph 23.0 mph 0.00 in Snow Light Snow
11:01 PM 32.0 °F 20.8 °F 30.2 °F 93% 29.89 in 0.8 mi SSW 17.3 mph 28.8 mph 0.00 in Snow Light Snow
11:09 PM 32.0 °F 22.5 °F 30.2 °F 93% 29.90 in 0.2 mi SW 12.7 mph 28.8 mph 0.00 in Fog , Snow Light Snow
11:56 PM 30.9 °F 27.5 °F 30.9 °F 100% 29.97 in 0.2 mi Variable 3.5 mph - 0.05 in Fog , Snow Light Snow